{"data":{"norad_id":64229,"epoch":"2026-09-20T14:08:16.729728Z","epoch_age_seconds":129891,"freshness":"FRESH","line1":"1 64229U 25117AC  26263.58908252  .00016302  00000+0  49272-3 0  9995","line2":"2 64229  53.1587 210.9794 0001464  62.8954 297.2198 15.34389399 74446","mean_motion":15.34389399,"eccentricity":0.0001464,"inclination_deg":53.1587,"raan_deg":210.9794,"arg_perigee_deg":62.8954,"mean_anomaly_deg":297.2198,"bstar":0.00049272,"rev_number":7444,"period_min":93.848406469602,"perigee_km":461.73324517055,"apogee_km":463.7362524186,"semimajor_km":6840.8717487946,"source":"CELESTRAK","updated_at":"2026-09-21T09:00:35.275712Z"}}